Simultaneous Nadir Overpasses (SNOs) Predictions

Prediction of SNOs between METOP-C and LANDSAT-8 Satellite Orbit:

Table of predicted SNOs for the next 14.0 days since TLE Epoch: 2/6/2021
Index Date (METOP-C) Time (METOP-C) Lat,Lon (METOP-C) SZA (METOP-C ) Date (LANDSAT-8) Time (LANDSAT-8) Lat,Lon (LANDSAT-8) SZA (LANDSAT-8 ) Distance(km) Time Diff (sec)
1 02/06/2021 19:40:15 -81.06, 103.56 82.05 02/06/2021 19:40:51 -81.06, 103.64 82.03 1.50 36
2 02/06/2021 20:30:53 81.09, -88.41 98.03 02/06/2021 20:30:16 81.10, -88.24 98.03 2.95 37
3 02/09/2021 15:14:37 -81.08, 170.26 82.91 02/09/2021 15:15:05 -81.08, 170.33 82.89 1.33 28
4 02/09/2021 16:05:16 81.09, -22.12 97.12 02/09/2021 16:04:31 81.09, -21.94 97.12 3.10 45
5 02/12/2021 10:48:59 -81.07,-123.42 83.84 02/12/2021 10:49:19 -81.07,-123.38 83.83 0.73 20
6 02/12/2021 11:39:37 81.10, 44.53 96.22 02/12/2021 11:38:44 81.10, 44.69 96.22 2.80 53
7 02/15/2021 06:23:21 -81.08, -56.74 84.76 02/15/2021 06:23:33 -81.09, -56.75 84.75 0.33 12
8 02/15/2021 07:13:59 81.10, 111.18 95.30 02/15/2021 07:12:58 81.11, 111.30 95.30 2.17 61
9 02/18/2021 01:57:44 -81.08, 9.56 85.75 02/18/2021 01:57:48 -81.07, 9.49 85.76 1.32 4



Historial Predications of SNOs between METOP-C and LANDSAT-8
